TAP5DL LPPT-EDDL

Flight info

Callsign TAP5DL
Flight time 2h 31m
Altitude 36000
Route IXIDA DCT TOSDI DCT ZMR DCT NUBLO DCT RONSI DCT DELOG DCT PEXOD/N0454F380 DCT DIDIG DCT ARDOD UN873 OBATO UM163 TSU UN858 OQQAL DCT RANUX/N0445F370 DCT VALEK DCT LUTAX DCT DIK/N0408F230 N853 ARCKY T853 NVO T857 BIKMU BIKMU1A
Aircraft A320/M-SDE3FGHIRWY/LB1

Departure

Time 2026-05-04 15:31
Airport Lisbon Humberto Delgado Airport (LPPT)

Arrival

Time 2026-05-04 18:03
Airport Düsseldorf Airport (EDDL)
Time Latitude Longitude Altitude Speed Heading
2026-05-04 15:05 38.76891 -9.13051 337 ft 0 kts 77°
2026-05-04 15:21 38.76890 -9.13061 332 ft 4 kts 77°
2026-05-04 15:22 38.76884 -9.13094 334 ft 4 kts 77°
2026-05-04 15:22 38.76881 -9.13121 337 ft 4 kts 104°
2026-05-04 15:22 38.76902 -9.13145 337 ft 4 kts 168°
2026-05-04 15:23 38.76884 -9.13140 335 ft 1 kts 168°
2026-05-04 15:25 38.76882 -9.13139 339 ft 2 kts 168°
2026-05-04 15:26 38.76819 -9.13122 336 ft 8 kts 173°
2026-05-04 15:26 38.76785 -9.13143 338 ft 4 kts 232°
2026-05-04 15:26 38.76776 -9.13200 340 ft 7 kts 259°
2026-05-04 15:27 38.76762 -9.13278 341 ft 10 kts 257°
2026-05-04 15:27 38.76699 -9.13424 351 ft 10 kts 213°
2026-05-04 15:28 38.76641 -9.13565 351 ft 10 kts 259°
2026-05-04 15:28 38.76626 -9.13660 351 ft 11 kts 258°
2026-05-04 15:28 38.76590 -9.13880 345 ft 14 kts 258°
2026-05-04 15:29 38.76564 -9.14006 353 ft 15 kts 239°
2026-05-04 15:30 38.76586 -9.14418 333 ft 4 kts 356°
2026-05-04 15:30 38.77412 -9.13978 363 ft 123 kts 22°
2026-05-04 15:31 38.79430 -9.12862 972 ft 167 kts 18°
2026-05-04 15:31 38.80500 -9.12290 1729 ft 166 kts 17°
2026-05-04 15:32 38.84076 -9.09767 2850 ft 234 kts 27°
2026-05-04 15:32 38.87028 -9.07494 4328 ft 255 kts 27°
2026-05-04 15:33 38.90073 -9.04973 6012 ft 269 kts 38°
2026-05-04 15:34 38.93873 -9.00579 8229 ft 282 kts 39°
2026-05-04 15:34 38.95323 -8.98859 9043 ft 286 kts 39°
2026-05-04 15:34 38.98823 -8.94738 10584 ft 309 kts 39°
2026-05-04 15:35 39.02230 -8.90766 11079 ft 353 kts 39°
2026-05-04 15:35 39.04076 -8.88614 11620 ft 362 kts 39°
2026-05-04 15:35 39.05956 -8.86417 12276 ft 367 kts 39°
2026-05-04 15:36 39.09137 -8.82702 13413 ft 376 kts 38°
2026-05-04 15:36 39.11083 -8.80423 14053 ft 381 kts 38°
2026-05-04 15:36 39.13048 -8.78110 14630 ft 386 kts 39°
2026-05-04 15:37 39.15636 -8.74917 15397 ft 393 kts 40°
2026-05-04 15:37 39.16948 -8.73237 15784 ft 395 kts 41°
2026-05-04 15:37 39.18881 -8.70714 16537 ft 394 kts 41°
2026-05-04 15:37 39.20793 -8.68196 17385 ft 390 kts 41°
2026-05-04 15:38 39.22653 -8.65751 18302 ft 385 kts 41°
2026-05-04 15:38 39.24519 -8.63313 19123 ft 378 kts 41°
2026-05-04 15:38 39.26359 -8.60928 19909 ft 374 kts 40°
2026-05-04 15:38 39.28187 -8.58567 20655 ft 369 kts 40°
2026-05-04 15:39 39.29993 -8.56237 21420 ft 365 kts 40°
2026-05-04 15:39 39.31774 -8.53933 22214 ft 360 kts 39°
2026-05-04 15:39 39.35285 -8.49390 23398 ft 363 kts 39°
2026-05-04 15:40 39.37106 -8.47043 23548 ft 377 kts 39°
2026-05-04 15:40 39.38975 -8.44636 23679 ft 391 kts 39°
2026-05-04 15:40 39.40932 -8.42105 23799 ft 405 kts 40°
2026-05-04 15:40 39.42949 -8.39485 23936 ft 417 kts 40°
2026-05-04 15:41 39.45020 -8.36783 24073 ft 428 kts 40°
2026-05-04 15:41 39.47136 -8.34011 24294 ft 436 kts 40°
2026-05-04 15:41 39.49272 -8.31204 24676 ft 438 kts 40°
2026-05-04 15:41 39.51413 -8.28391 25182 ft 438 kts 40°
2026-05-04 15:42 39.53550 -8.25585 25671 ft 438 kts 40°
2026-05-04 15:42 39.55689 -8.22779 26164 ft 437 kts 40°
2026-05-04 15:42 39.57797 -8.20017 26660 ft 436 kts 40°
2026-05-04 15:42 39.59928 -8.17228 27168 ft 435 kts 39°
2026-05-04 15:43 39.62057 -8.14435 27694 ft 434 kts 39°
2026-05-04 15:43 39.64172 -8.11651 28224 ft 433 kts 39°
2026-05-04 15:43 39.66282 -8.08875 28770 ft 431 kts 39°
2026-05-04 15:43 39.68381 -8.06111 29320 ft 429 kts 39°
2026-05-04 15:44 39.70476 -8.03354 29815 ft 428 kts 39°
2026-05-04 15:44 39.72564 -8.00603 30291 ft 427 kts 39°
2026-05-04 15:44 39.74654 -7.97847 30659 ft 428 kts 39°
2026-05-04 15:44 39.76717 -7.95123 31059 ft 429 kts 39°
2026-05-04 15:45 39.78810 -7.92356 31436 ft 429 kts 39°
2026-05-04 15:45 39.80904 -7.89587 31815 ft 430 kts 39°
2026-05-04 15:45 39.83004 -7.86812 32184 ft 430 kts 39°
2026-05-04 15:45 39.85101 -7.84033 32580 ft 431 kts 39°
2026-05-04 15:46 39.87201 -7.81247 32906 ft 432 kts 39°
2026-05-04 15:46 39.89308 -7.78451 33234 ft 433 kts 39°
2026-05-04 15:46 39.91417 -7.75647 33560 ft 434 kts 39°
2026-05-04 15:46 39.93528 -7.72835 33879 ft 434 kts 39°
2026-05-04 15:47 39.95644 -7.70015 34137 ft 436 kts 39°
2026-05-04 15:47 39.97739 -7.67222 34357 ft 437 kts 39°
2026-05-04 15:47 39.99866 -7.64382 34600 ft 439 kts 39°
2026-05-04 15:47 40.02002 -7.61530 34875 ft 440 kts 39°
2026-05-04 15:48 40.04140 -7.58671 35054 ft 442 kts 40°
2026-05-04 15:48 40.06292 -7.55791 35259 ft 444 kts 40°
2026-05-04 15:48 40.10624 -7.49987 35640 ft 448 kts 40°
2026-05-04 15:49 40.12808 -7.47054 35764 ft 452 kts 40°
2026-05-04 15:49 40.15007 -7.44099 35905 ft 455 kts 40°
2026-05-04 15:49 40.19462 -7.38099 36010 ft 466 kts 40°
2026-05-04 15:50 40.24012 -7.31974 36009 ft 478 kts 41°
2026-05-04 15:50 40.28652 -7.25707 35993 ft 479 kts 41°
2026-05-04 15:51 40.33284 -7.19430 35997 ft 479 kts 41°
2026-05-04 15:51 40.37913 -7.13142 35987 ft 479 kts 41°
2026-05-04 15:52 40.42509 -7.06901 35989 ft 479 kts 41°
2026-05-04 15:52 40.47134 -7.00595 35997 ft 479 kts 41°
2026-05-04 15:53 40.51750 -6.94278 35992 ft 479 kts 41°
2026-05-04 15:53 40.56371 -6.87956 35989 ft 479 kts 41°
2026-05-04 15:54 40.60959 -6.81674 35986 ft 479 kts 42°
2026-05-04 15:54 40.65572 -6.75334 35979 ft 480 kts 42°
2026-05-04 15:55 40.70189 -6.68976 35973 ft 480 kts 42°
2026-05-04 15:55 40.74799 -6.62613 35992 ft 480 kts 42°
2026-05-04 15:56 40.79380 -6.56279 35986 ft 480 kts 42°
2026-05-04 15:56 40.83988 -6.49899 35980 ft 480 kts 42°
2026-05-04 15:57 40.88590 -6.43501 35981 ft 480 kts 42°
2026-05-04 15:57 40.93189 -6.37093 35978 ft 481 kts 42°
2026-05-04 15:58 40.97786 -6.30670 35997 ft 481 kts 43°
2026-05-04 15:58 41.00232 -6.27695 35993 ft 473 kts 30°
2026-05-04 15:58 41.03009 -6.25579 35987 ft 465 kts 20°
2026-05-04 15:59 41.08814 -6.21800 35961 ft 465 kts 20°
2026-05-04 15:59 41.14604 -6.17920 35958 ft 467 kts 22°
2026-05-04 16:00 41.20334 -6.13844 35980 ft 468 kts 23°
2026-05-04 16:00 41.26018 -6.09753 35974 ft 468 kts 22°
2026-05-04 16:01 41.31760 -6.05670 35970 ft 468 kts 22°
2026-05-04 16:01 41.37512 -6.01604 35965 ft 468 kts 22°
2026-05-04 16:02 41.43263 -5.97531 35979 ft 468 kts 23°
2026-05-04 16:03 41.51838 -5.91424 35964 ft 468 kts 23°
2026-05-04 16:03 41.57582 -5.87318 35960 ft 468 kts 23°
2026-05-04 16:04 41.63323 -5.83213 35984 ft 468 kts 23°
2026-05-04 16:04 41.71927 -5.77041 35970 ft 468 kts 23°
2026-05-04 16:05 41.77618 -5.72944 35965 ft 467 kts 23°
2026-05-04 16:06 41.86200 -5.66753 35975 ft 467 kts 24°
2026-05-04 16:07 41.97630 -5.58483 35977 ft 466 kts 24°
2026-05-04 16:08 42.09009 -5.50222 35988 ft 466 kts 25°
2026-05-04 16:09 42.23228 -5.39847 35967 ft 466 kts 25°
2026-05-04 16:10 42.34612 -5.31477 35971 ft 466 kts 25°
2026-05-04 16:11 42.46007 -5.23108 35967 ft 466 kts 25°
2026-05-04 16:12 42.63047 -5.10477 35981 ft 466 kts 26°
2026-05-04 16:13 42.74389 -5.02040 35993 ft 466 kts 26°
2026-05-04 16:14 42.85765 -4.93548 35985 ft 466 kts 26°
2026-05-04 16:16 42.99930 -4.82888 36013 ft 466 kts 26°
2026-05-04 16:17 43.14135 -4.72180 36047 ft 466 kts 26°
2026-05-04 16:18 43.25430 -4.63600 36045 ft 465 kts 27°
2026-05-04 16:19 43.39547 -4.52846 36043 ft 465 kts 27°
2026-05-04 16:20 43.53674 -4.42026 36021 ft 465 kts 27°
2026-05-04 16:22 43.67754 -4.31176 36017 ft 465 kts 28°
2026-05-04 16:23 43.84694 -4.18037 36020 ft 465 kts 28°
2026-05-04 16:25 44.01580 -4.04868 36013 ft 465 kts 28°
2026-05-04 16:26 44.21262 -3.89403 36023 ft 465 kts 29°
2026-05-04 16:28 44.35256 -3.78330 35996 ft 463 kts 29°
2026-05-04 16:29 44.54833 -3.62744 35989 ft 462 kts 29°
2026-05-04 16:31 44.68747 -3.51580 36000 ft 462 kts 30°
2026-05-04 16:32 44.85422 -3.38131 35977 ft 461 kts 30°
2026-05-04 16:33 44.96562 -3.29118 35979 ft 461 kts 30°
2026-05-04 16:34 45.04892 -3.22331 35981 ft 461 kts 30°
2026-05-04 16:35 45.21499 -3.08734 35990 ft 460 kts 30°
2026-05-04 16:36 45.29770 -3.01929 35973 ft 460 kts 30°
2026-05-04 16:37 45.38076 -2.95073 35980 ft 460 kts 31°
2026-05-04 16:38 45.49133 -2.85906 35972 ft 460 kts 31°
2026-05-04 16:39 45.62900 -2.74443 35980 ft 459 kts 31°
2026-05-04 16:40 45.73926 -2.65211 35962 ft 459 kts 31°
2026-05-04 16:41 45.87664 -2.53636 35960 ft 459 kts 31°
2026-05-04 16:43 46.01388 -2.42014 35953 ft 459 kts 31°
2026-05-04 16:43 46.09637 -2.34994 35934 ft 459 kts 31°
2026-05-04 16:45 46.26114 -2.20902 35946 ft 460 kts 31°
2026-05-04 16:46 46.39865 -2.09082 35957 ft 459 kts 32°
2026-05-04 16:47 46.50787 -1.99621 35947 ft 459 kts 32°
2026-05-04 16:48 46.61757 -1.90085 35943 ft 460 kts 32°
2026-05-04 16:49 46.72728 -1.80502 35951 ft 460 kts 32°
2026-05-04 16:50 46.83659 -1.70897 35954 ft 460 kts 32°
2026-05-04 16:51 46.91890 -1.63659 35954 ft 460 kts 32°
2026-05-04 16:52 47.02824 -1.53960 35938 ft 462 kts 32°
2026-05-04 16:53 47.11075 -1.46641 35947 ft 462 kts 32°
2026-05-04 16:54 47.22016 -1.36878 35947 ft 461 kts 33°
2026-05-04 16:55 47.38380 -1.22171 35928 ft 460 kts 33°
2026-05-04 16:56 47.52031 -1.09829 35935 ft 460 kts 33°
2026-05-04 16:57 47.60216 -1.02391 35947 ft 460 kts 33°
2026-05-04 16:58 47.71049 -0.92420 35953 ft 459 kts 38°
2026-05-04 16:59 47.75580 -0.85878 35951 ft 452 kts 55°
2026-05-04 17:00 47.83235 -0.71001 35952 ft 454 kts 55°
2026-05-04 17:01 47.92793 -0.52360 35974 ft 454 kts 55°
2026-05-04 17:02 48.00434 -0.37366 35971 ft 454 kts 55°
2026-05-04 17:03 48.06093 -0.26117 35970 ft 452 kts 60°
2026-05-04 17:03 48.10275 -0.13605 35971 ft 448 kts 68°
2026-05-04 17:04 48.15549 0.03214 35939 ft 448 kts 68°
2026-05-04 17:05 48.20833 0.20179 35937 ft 450 kts 68°
2026-05-04 17:06 48.24782 0.32955 35944 ft 450 kts 68°
2026-05-04 17:07 48.28276 0.44308 35929 ft 450 kts 68°
2026-05-04 17:07 48.31324 0.54243 35928 ft 451 kts 68°
2026-05-04 17:08 48.35243 0.67104 35948 ft 453 kts 68°
2026-05-04 17:09 48.37856 0.75714 35946 ft 452 kts 68°
2026-05-04 17:09 48.40442 0.84254 35931 ft 451 kts 68°
2026-05-04 17:10 48.46927 1.05785 35925 ft 451 kts 68°
2026-05-04 17:11 48.49491 1.14348 35924 ft 451 kts 68°
2026-05-04 17:12 48.53343 1.27299 35921 ft 451 kts 68°
2026-05-04 17:13 48.59737 1.48942 35917 ft 452 kts 68°
2026-05-04 17:14 48.64802 1.66267 35928 ft 452 kts 70°
2026-05-04 17:15 48.68115 1.79586 35914 ft 451 kts 73°
2026-05-04 17:16 48.72292 1.97437 35932 ft 452 kts 72°
2026-05-04 17:17 48.76472 2.15377 35937 ft 451 kts 76°
2026-05-04 17:18 48.79608 2.33689 35930 ft 451 kts 78°
2026-05-04 17:19 48.82855 2.52079 35935 ft 451 kts 77°
2026-05-04 17:20 48.86121 2.70420 35919 ft 451 kts 78°
2026-05-04 17:20 48.88541 2.84246 35923 ft 452 kts 78°
2026-05-04 17:21 48.91739 3.02718 35925 ft 452 kts 78°
2026-05-04 17:22 48.93321 3.11903 35911 ft 452 kts 78°
2026-05-04 17:23 48.96498 3.30419 35926 ft 453 kts 79°
2026-05-04 17:24 48.98844 3.44340 35929 ft 453 kts 79°
2026-05-04 17:25 49.01944 3.62864 35921 ft 453 kts 79°
2026-05-04 17:26 49.05024 3.81483 35933 ft 453 kts 79°
2026-05-04 17:27 49.08839 4.04722 35937 ft 453 kts 79°
2026-05-04 17:28 49.11837 4.23328 35937 ft 453 kts 80°
2026-05-04 17:29 49.17854 4.50721 35923 ft 457 kts 71°
2026-05-04 17:31 49.23885 4.73119 35952 ft 457 kts 71°
2026-05-04 17:32 49.29897 4.95614 35939 ft 457 kts 71°
2026-05-04 17:33 49.34658 5.13593 35954 ft 457 kts 71°
2026-05-04 17:34 49.39420 5.31677 35965 ft 457 kts 71°
2026-05-04 17:35 49.45299 5.54276 35962 ft 457 kts 72°
2026-05-04 17:36 49.47649 5.63363 35971 ft 457 kts 72°
2026-05-04 17:36 49.50106 5.72320 35972 ft 460 kts 64°
2026-05-04 17:37 49.54001 5.80160 35970 ft 465 kts 44°
2026-05-04 17:37 49.59105 5.86166 35943 ft 459 kts 34°
2026-05-04 17:38 49.64488 5.91429 35947 ft 462 kts 32°
2026-05-04 17:38 49.70023 5.96700 35821 ft 467 kts 32°
2026-05-04 17:38 49.72701 5.99326 35565 ft 458 kts 33°
2026-05-04 17:39 49.77942 6.04615 35062 ft 441 kts 34°
2026-05-04 17:39 49.80478 6.07206 34807 ft 434 kts 34°
2026-05-04 17:39 49.83024 6.09704 34392 ft 432 kts 28°
2026-05-04 17:40 49.85757 6.11592 33967 ft 429 kts 17°
2026-05-04 17:40 49.88634 6.12709 33486 ft 425 kts
2026-05-04 17:40 49.91560 6.13019 33195 ft 421 kts 356°
2026-05-04 17:40 49.94454 6.13004 32985 ft 421 kts 356°
2026-05-04 17:41 50.00342 6.13037 32997 ft 431 kts 357°
2026-05-04 17:41 50.03380 6.13063 32999 ft 442 kts 357°
2026-05-04 17:41 50.06489 6.13085 32995 ft 451 kts 357°
2026-05-04 17:42 50.12820 6.13130 32993 ft 461 kts 357°
2026-05-04 17:42 50.19300 6.13172 32428 ft 465 kts 357°
2026-05-04 17:43 50.22534 6.13196 31778 ft 465 kts 357°
2026-05-04 17:43 50.25725 6.13269 31149 ft 466 kts
2026-05-04 17:43 50.28936 6.14046 30509 ft 468 kts 13°
2026-05-04 17:43 50.32005 6.15728 29884 ft 469 kts 25°
2026-05-04 17:44 50.34837 6.18249 29170 ft 467 kts 34°
2026-05-04 17:44 50.37545 6.21044 28481 ft 466 kts 34°
2026-05-04 17:44 50.40246 6.23828 27814 ft 464 kts 34°
2026-05-04 17:44 50.42937 6.26598 27150 ft 462 kts 33°
2026-05-04 17:45 50.45612 6.29354 26593 ft 457 kts 33°
2026-05-04 17:45 50.48254 6.32080 26103 ft 451 kts 33°
2026-05-04 17:45 50.50840 6.34710 25615 ft 446 kts 32°
2026-05-04 17:45 50.53465 6.37220 25131 ft 440 kts 30°
2026-05-04 17:46 50.56096 6.39624 24655 ft 434 kts 29°
2026-05-04 17:46 50.58699 6.41953 24171 ft 428 kts 28°
2026-05-04 17:46 50.61277 6.44251 23727 ft 423 kts 28°
2026-05-04 17:46 50.63813 6.46530 23205 ft 418 kts 29°
2026-05-04 17:47 50.66309 6.48804 22663 ft 413 kts 30°
2026-05-04 17:47 50.68751 6.51056 22137 ft 409 kts 30°
2026-05-04 17:47 50.71190 6.53324 21617 ft 405 kts 30°
2026-05-04 17:47 50.73605 6.55579 21102 ft 402 kts 30°
2026-05-04 17:48 50.75996 6.57814 20566 ft 398 kts 30°
2026-05-04 17:48 50.78377 6.60037 20068 ft 396 kts 30°
2026-05-04 17:48 50.80751 6.62211 19532 ft 394 kts 27°
2026-05-04 17:48 50.83304 6.63757 18935 ft 394 kts 13°
2026-05-04 17:49 50.85998 6.64475 18352 ft 393 kts
2026-05-04 17:49 50.88716 6.65050 17688 ft 394 kts
2026-05-04 17:49 50.91429 6.65629 17105 ft 392 kts
2026-05-04 17:49 50.94086 6.66199 16602 ft 390 kts
2026-05-04 17:50 50.96756 6.66773 16270 ft 383 kts
2026-05-04 17:50 50.99365 6.67335 16013 ft 374 kts
2026-05-04 17:50 51.01918 6.67851 15766 ft 365 kts
2026-05-04 17:50 51.04428 6.67801 15516 ft 356 kts 356°
2026-05-04 17:51 51.06896 6.67756 15256 ft 355 kts
2026-05-04 17:51 51.09237 6.68891 14929 ft 352 kts 29°
2026-05-04 17:51 51.11200 6.71180 14520 ft 350 kts 42°
2026-05-04 17:51 51.13020 6.73752 14016 ft 352 kts 43°
2026-05-04 17:52 51.14835 6.76350 13282 ft 359 kts 43°
2026-05-04 17:52 51.16689 6.79017 12672 ft 359 kts 43°
2026-05-04 17:52 51.18554 6.81708 11905 ft 364 kts 43°
2026-05-04 17:52 51.20432 6.84424 11374 ft 361 kts 43°
2026-05-04 17:53 51.22211 6.87158 11066 ft 351 kts 50°
2026-05-04 17:53 51.23734 6.90139 10745 ft 342 kts 53°
2026-05-04 17:53 51.25171 6.93052 10415 ft 327 kts 53°
2026-05-04 17:53 51.26550 6.95854 10052 ft 315 kts 53°
2026-05-04 17:54 51.27882 6.98558 9722 ft 303 kts 53°
2026-05-04 17:54 51.29168 7.01162 9184 ft 296 kts 53°
2026-05-04 17:54 51.30424 7.03701 8530 ft 294 kts 53°
2026-05-04 17:54 51.31686 7.06254 7844 ft 292 kts 53°
2026-05-04 17:55 51.32949 7.08806 7326 ft 293 kts 53°
2026-05-04 17:55 51.34204 7.11352 6954 ft 291 kts 53°
2026-05-04 17:55 51.35451 7.13894 6510 ft 291 kts 53°
2026-05-04 17:55 51.36689 7.16423 6193 ft 286 kts 53°
2026-05-04 17:56 51.37991 7.18789 5870 ft 282 kts 39°
2026-05-04 17:56 51.39736 7.20144 5455 ft 280 kts 10°
2026-05-04 17:56 51.41644 7.20076 5050 ft 275 kts 341°
2026-05-04 17:56 51.43264 7.18651 4634 ft 270 kts 314°
2026-05-04 17:57 51.44268 7.16182 4197 ft 264 kts 285°
2026-05-04 17:57 51.44587 7.13335 3933 ft 254 kts 270°
2026-05-04 17:57 51.44377 7.10623 3769 ft 240 kts 250°
2026-05-04 17:57 51.43626 7.08289 3464 ft 234 kts 231°
2026-05-04 17:58 51.42642 7.06210 3099 ft 234 kts 231°
2026-05-04 17:58 51.41667 7.04140 3034 ft 234 kts 232°
2026-05-04 17:58 51.40690 7.02066 3037 ft 228 kts 232°
2026-05-04 17:58 51.39781 7.00137 3034 ft 212 kts 231°
2026-05-04 17:59 51.38922 6.98315 3033 ft 198 kts 231°
2026-05-04 17:59 51.38113 6.96603 2965 ft 189 kts 231°
2026-05-04 17:59 51.36554 6.93305 2526 ft 183 kts 231°
2026-05-04 18:00 51.35787 6.91685 2272 ft 181 kts 230°
2026-05-04 18:00 51.35039 6.90105 2033 ft 175 kts 231°
2026-05-04 18:00 51.34317 6.88579 1795 ft 167 kts 231°
2026-05-04 18:00 51.33641 6.87152 1591 ft 154 kts 230°
2026-05-04 18:01 51.33001 6.85801 1374 ft 150 kts 230°
2026-05-04 18:01 51.32386 6.84505 1126 ft 149 kts 230°
2026-05-04 18:01 51.31765 6.83199 932 ft 147 kts 230°
2026-05-04 18:02 51.30529 6.80596 519 ft 148 kts 229°
2026-05-04 18:02 51.29904 6.79281 349 ft 149 kts 229°
2026-05-04 18:02 51.29276 6.77958 156 ft 148 kts 229°
2026-05-04 18:02 51.28738 6.76830 132 ft 90 kts 233°
2026-05-04 18:03 51.28471 6.76272 128 ft 45 kts 232°
2026-05-04 18:03 51.28334 6.76055 128 ft 20 kts 202°
2026-05-04 18:03 51.28259 6.76041 125 ft 8 kts 170°
2026-05-04 18:03 51.28214 6.76068 125 ft 0 kts 151°
2026-05-04 18:04 51.28206 6.76075 127 ft 4 kts 150°
2026-05-04 18:05 51.28190 6.76097 125 ft 4 kts 127°
2026-05-04 18:05 51.28188 6.76131 126 ft 2 kts 83°
2026-05-04 18:05 51.28193 6.76148 125 ft 1 kts 63°
2026-05-04 18:05 51.28201 6.76170 126 ft 3 kts 59°
2026-05-04 18:06 51.28210 6.76215 124 ft 1 kts 92°
2026-05-04 18:06 51.28209 6.76220 125 ft 0 kts 109°
2026-05-04 18:07 51.28208 6.76222 129 ft 1 kts 110°
2026-05-04 18:07 51.28200 6.76240 125 ft 2 kts 130°
2026-05-04 18:07 51.28195 6.76248 127 ft 0 kts 139°
2026-05-04 18:08 51.28194 6.76249 129 ft 1 kts 140°
2026-05-04 18:08 51.28166 6.76276 128 ft 6 kts 143°
2026-05-04 18:08 51.28150 6.76303 128 ft 3 kts 128°
2026-05-04 18:08 51.28142 6.76321 130 ft 4 kts 123°
2026-05-04 18:09 51.28111 6.76395 131 ft 4 kts 129°
2026-05-04 18:09 51.28066 6.76382 130 ft 3 kts 210°
2026-05-04 18:10 51.28050 6.76372 126 ft 2 kts 199°
2026-05-04 18:10 51.28042 6.76368 127 ft 0 kts 197°